esm3.com alexa rank chart, esm3.com alexa rank daily changes

esm3.com alexa rank chart, esm3.com alexa rank daily changes

esm3.com
Actual rank:
34 764

RANK HISTORY

Date Rank Diff
2017/04/25 34 764 -216
2017/04/24 34 980 -179
2017/04/23 35 159 +47
2017/04/22 35 112 +32
2017/04/21 35 080 +226
2017/04/20 34 854 +422
2017/04/19 34 432 +201
2017/04/18 34 231 +113
2017/04/17 34 118 -945
2017/04/16 35 063 -545
2017/04/15 35 608 +244
2017/04/14 35 364 +792
2017/04/13 34 572 +101
2017/04/12 34 471 +55
2017/04/11 34 416 -196
2017/04/10 34 612 -57
2017/04/09 34 669 -171
2017/04/08 34 840 -163
2017/04/07 35 003 +99
2017/04/06 34 904 +423
2017/04/05 34 481 -133
2017/04/04 34 614 +22
2017/04/03 34 592 -372
2017/04/02 34 964 +464
2017/04/01 34 500 +197
2017/03/31 34 303 +403
2017/03/30 33 900 +191
2017/03/29 33 709 +57
2017/03/28 33 652 +451
2017/03/27 33 201 +111
2017/03/26 33 090 -523
2017/03/25 33 613 +61
2017/03/24 33 552 +30
2017/03/23 33 522 +205
2017/03/22 33 317 -16
2017/03/21 33 333 -161
2017/03/20 33 494 +113
2017/03/19 33 381 +76
2017/03/18 33 305 -64
2017/03/17 33 369 +375
2017/03/16 32 994 +310
2017/03/15 32 684 +293
2017/03/14 32 391 +111
2017/03/13 32 280 +148
2017/03/12 32 132 +603
2017/03/11 31 529 +825
2017/03/10 30 704 +316
2017/03/09 30 388 +475
2017/03/08 29 913 +270
2017/03/07 29 643 -41
2017/03/06 29 684 -36
2017/03/01 29 720 -522
2017/02/28 30 242 -169
2017/02/27 30 411 +36
2017/02/26 30 375 +38
2017/02/25 30 337 -218
2017/02/24 30 555

WIDGET FOR YOUR SITE

DOMAINS WITH THE NEAREST RANK

Domain Rank
mapmyride.com 34 759
dunya.com 34 760
esc13.net 34 761
submanga.com 34 762
anticlove.com 34 763
esm3.com 34 764
amcharts.com 34 765
englishteststore.net 34 766
aom.org 34 767
lestream.fr 34 768
delijn.be 34 769

DOMAINS WITH THE NEAREST RANK BY TLD .com

Domain Rank
wefut.com 34 758
mapmyride.com 34 759
dunya.com 34 760
submanga.com 34 762
anticlove.com 34 763
esm3.com 34 764
amcharts.com 34 765
6781.com 34 770
humankinetics.com 34 771
myjetbrains.com 34 773
ieltsonlinetests.com 34 774